Weather in Mankivka

Ukraine / Cherkassi District     48°57′41″N   30°20′31″E
temp.,
°C
wind,
m/s
gust,
m/s
humid.,
%
clouds,
%
prec.,
mm/h
press.,
hPa
HPBL,
m
20 april, tue
tue2000:00+7ene2478100 0.0 101487
03:00+5ne227873 0.0 101215
06:00+6n2378100 0.0 101178
09:00+9n467599 0.2 1010493
12:00+11nne565883 0.6 10091488
15:00+11n6652100 0.8 10081460
18:00+11nnw5658100 0.0 10081381
21:00+7nw35755 0.3 100972
21 april, wed
wed2100:00+6wnw35835 0.0 101070
03:00+5wnw34895 0.0 101158
06:00+4wnw339193 0.0 101155
09:00+8w347550 0.0 1012401
12:00+12w465798 0.6 10121634
15:00+13w4651100 0.8 10121803
18:00+12wsw5761100 0.3 10131068
21:00+9sw3677100 0.6 1014100
22 april, thu
thu2200:00+7wsw368415 0.1 1015104
03:00+7sw378514 0.1 1015109
06:00+6sw358488 0.0 101678
09:00+12sw356537 0.0 1017350
12:00+15sw57516 0.0 10171451
15:00+17sw674180 0.2 10162499
18:00+16sw475029 0.0 1016593
21:00+12ssw2365100 0.0 101733
23 april, fri
fri2300:00+11s41074100 0.0 1016200
03:00+9s410795 0.0 1016174
06:00+8s511884 0.1 1015218
09:00+12ssw69695 0.1 1015501
12:00+17sw7114925 0.1 10142050
15:00+8nnw81190100 1.1 1016479
18:00+4nnw71293100 0.3 1018630
21:00+4n2586100 1.6 1019436
24 april, sat
sat2400:00+4sw36907 0.0 1019261
03:00+3w49915 0.0 1019237
06:00+2wnw614875 0.0 1019555
09:00+3wnw914510 0.0 10211483
12:00+6wnw9124590 0.0 10212142
15:00+8wnw81239100 0.0 10212387
18:00+8wnw594393 0.0 10212112
21:00+5w2470100 0.1 1022134